Location: Fayetteville
(35.0530°N, 78.8790°W)
Time: 19:36:05
(UTC-04:00)

ISS - Visible Passes

Search period start: 22 August 2014 00:00
Search period end: 01 September 2014 00:00
Orbit: 413 x 419 km, 51.6° (Epoch: 22 August)

Date Brightness Start Highest point End Pass type
(mag) Time Alt. Az. Time Alt. Az. Time Alt. Az.
22 Aug -1.5 20:21:51 10° NNW 20:24:28 21° NNE 20:27:05 10° E visible
22 Aug -1.6 21:58:11 10° WNW 22:00:27 30° W 22:00:27 30° W visible
23 Aug -3.2 21:09:28 10° NW 21:12:47 74° SW 21:13:58 37° SSE visible
24 Aug -3.0 20:20:56 10° NW 20:24:13 56° NE 20:27:29 10° ESE visible
24 Aug -0.4 21:59:32 10° WSW 22:00:27 11° SW 22:00:27 11° SW visible
25 Aug -1.1 21:09:33 10° WNW 21:12:08 21° SW 21:14:08 13° S visible
26 Aug -2.1 20:20:30 10° WNW 20:23:39 40° SW 20:26:47 10° SSE visible
28 Aug -0.4 20:21:18 10° W 20:22:46 12° SW 20:24:14 10° SSW visible
